TimeAKDT,TemperatureF,Dew PointF,Humidity,Sea Level PressureIn,VisibilityMPH,Wind Direction,Wind SpeedMPH,Gust SpeedMPH,PrecipitationIn,Events,Conditions,WindDirDegrees,DateUTC
12:55 AM,65.5,52.3,62,30.11,10.0,Variable,4.6,-,N/A,,Overcast,0,2013-07-16 08:55:00
1:55 AM,64.6,52.3,64,30.12,10.0,West,3.5,-,N/A,,Mostly Cloudy,270,2013-07-16 09:55:00
2:55 AM,59.9,52.2,76,30.12,10.0,Calm,Calm,-,N/A,,Overcast,0,2013-07-16 10:55:00
3:55 AM,58.3,52.5,81,30.13,10.0,Calm,Calm,-,N/A,,Overcast,0,2013-07-16 11:55:00
4:55 AM,55.6,50.7,84,30.13,10.0,Calm,Calm,-,N/A,,Overcast,0,2013-07-16 12:55:00
5:55 AM,58.6,51.3,76,30.14,10.0,WSW,6.9,-,N/A,,Mostly Cloudy,250,2013-07-16 13:55:00
6:55 AM,60.1,51.1,72,30.15,10.0,Variable,4.6,-,N/A,,Overcast,0,2013-07-16 14:55:00
7:55 AM,60.8,51.8,72,30.17,10.0,Variable,5.8,-,N/A,,Overcast,0,2013-07-16 15:55:00
8:55 AM,61.2,52.2,72,30.16,10.0,Variable,6.9,-,N/A,,Overcast,0,2013-07-16 16:55:00
10:55 AM,65.5,53.2,65,30.17,10.0,WNW,10.4,-,N/A,,Overcast,290,2013-07-16 18:55:00
11:17 AM,66.2,51.8,60,30.16,10.0,West,6.9,-,N/A,,Mostly Cloudy,260,2013-07-16 19:17:00
11:55 AM,66.4,53.8,64,30.17,10.0,West,6.9,-,N/A,,Mostly Cloudy,260,2013-07-16 19:55:00
12:55 PM,64.8,53.6,67,30.17,10.0,WNW,10.4,17.3,N/A,,Overcast,290,2013-07-16 20:55:00
1:55 PM,64.4,52.9,66,30.16,10.0,Variable,4.6,-,N/A,,Overcast,0,2013-07-16 21:55:00
2:55 PM,67.1,53.1,61,30.15,10.0,West,9.2,-,N/A,,Mostly Cloudy,270,2013-07-16 22:55:00
3:55 PM,68.7,53.2,58,30.14,10.0,West,9.2,18.4,N/A,,Mostly Cloudy,270,2013-07-16 23:55:00
4:55 PM,67.1,52.7,60,30.14,10.0,Variable,6.9,-,N/A,,Mostly Cloudy,0,2013-07-17 00:55:00
5:55 PM,66.0,51.8,60,30.13,10.0,West,10.4,-,N/A,,Overcast,280,2013-07-17 01:55:00
6:55 PM,65.7,52.5,62,30.12,10.0,WSW,9.2,-,N/A,,Overcast,240,2013-07-17 02:55:00
7:55 PM,64.2,52.3,65,30.12,10.0,Variable,4.6,-,N/A,,Overcast,0,2013-07-17 03:55:00
8:55 PM,64.0,52.7,67,30.12,10.0,Calm,Calm,-,N/A,,Overcast,0,2013-07-17 04:55:00
9:55 PM,63.3,52.7,68,30.12,10.0,Variable,3.5,-,N/A,,Overcast,0,2013-07-17 05:55:00
10:55 PM,62.1,52.9,72,30.11,10.0,Calm,Calm,-,N/A,,Overcast,0,2013-07-17 06:55:00
11:55 PM,61.3,52.9,74,30.11,10.0,Calm,Calm,-,N/A,,Overcast,0,2013-07-17 07:55:00